Change the Weather History Date:

Thursday, October 24, 2013

  Actual Average Record
Temperature  
Mean Temperature 40 °F -  
Max Temperature 42 °F 60 °F 77 °F (2010)
Min Temperature 37 °F 40 °F 30 °F (2003)
Degree Days  
Heating Degree Days 26    
Moisture  
Dew Point 32 °F    
Average Humidity 77    
Maximum Humidity 89    
Minimum Humidity 66    
Precipitation  
Precipitation 0.01 in - - ()
Sea Level Pressure  
Sea Level Pressure 30.13 in    
Wind  
Wind Speed 9 mph (WSW)    
Max Wind Speed 15 mph    
Max Gust Speed 22 mph    
Visibility 10 miles    
Events Rain , Snow    
Averages and records for this station are not official NWS values.
T = Trace of Precipitation, MM = Missing Value Source: NWS Daily Summary

Daily Weather History Graph

Daily Weather History Graph

Search for Another Location

Airport or City:

Trip Planner

Search our weather history database for the weather conditions in past years. The results will help you decide how hot, cold, wet, or windy it might be!

Date:

Astronomy

Oct. 24, 2013 Rise Set
Actual Time 7:56 AM EDT 6:43 PM EDT
Civil Twilight 7:28 AM EDT 7:11 PM EDT
Nautical Twilight 6:57 AM EDT 7:42 PM EDT
Astronomical Twilight 6:25 AM EDT 8:14 PM EDT
Moon 11:07 PM EDT (10/24) 12:56 PM EDT (10/24)
Length of Visible Light 11h 42m
Length of Day
10h 47m
Waning Gibbous, 71% of the Moon is Illuminated
Oct 24
Waning Gibbous
Oct 26
Last Quarter
Nov 3
New
Nov 10
First Quarter
Nov 17
Full

Hourly Weather History & Observations

Time (EDT) Temp. Windchill Dew Point Humidity Pressure Visibility Wind Dir Wind Speed Gust Speed Precip Events Conditions
12:58 AM 39.4 °F 33.8 °F 31.8 °F 74% 30.04 in 10.0 mi WSW 8.1 mph - N/A   Overcast
1:58 AM 38.8 °F 32.6 °F 31.5 °F 75% 30.05 in 10.0 mi WSW 9.2 mph - N/A   Overcast
2:58 AM 38.1 °F 32.3 °F 31.5 °F 77% 30.05 in 10.0 mi WSW 8.1 mph - N/A   Overcast
3:58 AM 38.1 °F 32.3 °F 31.8 °F 78% 30.05 in 10.0 mi WSW 8.1 mph - N/A   Overcast
4:58 AM 38.1 °F 32.9 °F 31.8 °F 78% 30.06 in 10.0 mi WSW 6.9 mph - N/A   Overcast
5:58 AM 38.1 °F 32.3 °F 31.3 °F 76% 30.06 in 10.0 mi WSW 8.1 mph - N/A   Mostly Cloudy
6:58 AM 38.1 °F 32.3 °F 31.1 °F 76% 30.08 in 10.0 mi West 8.1 mph - N/A   Overcast
7:58 AM 37.6 °F 31.6 °F 32.0 °F 80% 30.09 in 10.0 mi WSW 8.1 mph - N/A   Overcast
8:58 AM 37.4 °F 32.8 °F 32.9 °F 84% 30.10 in 10.0 mi SW 5.8 mph - N/A   Mostly Cloudy
9:58 AM 40.3 °F 33.4 °F 32.7 °F 74% 30.12 in 10.0 mi WSW 11.5 mph - N/A   Overcast
10:58 AM 40.8 °F 34.5 °F 31.3 °F 69% 30.13 in 10.0 mi WSW 10.4 mph - N/A   Mostly Cloudy
11:28 AM 41.0 °F 34.3 °F 32.0 °F 70% 30.10 in 10.0 mi WSW 11.5 mph - N/A   Mostly Cloudy
11:38 AM 41.0 °F 34.3 °F 32.0 °F 70% 30.10 in 10.0 mi WSW 11.5 mph - N/A   Mostly Cloudy
11:58 AM 40.8 °F 33.7 °F 32.4 °F 72% 30.14 in 10.0 mi SW 12.7 mph - N/A   Mostly Cloudy
12:48 PM 41.0 °F 34.7 °F 32.0 °F 70% 30.11 in 10.0 mi WSW 10.4 mph - N/A   Light Drizzle
12:58 PM 40.8 °F 35.0 °F 32.7 °F 73% 30.14 in 10.0 mi WSW 9.2 mph - 0.00 in   Light Drizzle
1:00 PM 41.0 °F 34.7 °F 32.0 °F 70% 30.11 in 10.0 mi WSW 10.4 mph - N/A   Scattered Clouds
1:30 PM 42.8 °F 36.6 °F 32.0 °F 66% 30.11 in 10.0 mi West 11.5 mph - N/A   Overcast
1:40 PM 42.8 °F 37.0 °F 32.0 °F 66% 30.10 in 10.0 mi SW 10.4 mph - N/A   Overcast
1:58 PM 42.1 °F 36.1 °F 32.2 °F 68% 30.13 in 10.0 mi SW 10.4 mph - 0.00 in   Overcast
2:16 PM 41.0 °F 33.1 °F 32.0 °F 70% 30.10 in 10.0 mi SW 15.0 mph 21.9 mph N/A   Light Drizzle
2:26 PM 41.0 °F 33.9 °F 32.0 °F 70% 30.10 in 10.0 mi SSW 12.7 mph - N/A   Overcast
2:58 PM 39.7 °F 33.7 °F 34.3 °F 81% 30.13 in 10.0 mi SW 9.2 mph - 0.00 in   Overcast
3:39 PM 42.8 °F 35.8 °F 33.8 °F 70% 30.12 in 10.0 mi NW 13.8 mph - N/A   Overcast
3:43 PM 41.0 °F 35.2 °F 33.8 °F 76% 30.12 in 10.0 mi NNW 9.2 mph - N/A   Light Drizzle
3:53 PM 37.4 °F 30.8 °F 33.8 °F 87% 30.13 in 10.0 mi NW 9.2 mph - N/A   Light Drizzle
3:58 PM 37.9 °F 30.0 °F 33.8 °F 85% 30.16 in 10.0 mi NW 12.7 mph 18.4 mph 0.00 in   Light Drizzle
4:01 PM 37.4 °F 30.3 °F 33.8 °F 87% 30.13 in 10.0 mi NW 10.4 mph 18.4 mph N/A Rain , Snow Light Rain
4:08 PM 37.4 °F 30.8 °F 33.8 °F 87% 30.13 in 7.0 mi WNW 9.2 mph - N/A Rain , Snow Light Rain
4:18 PM 37.4 °F 30.3 °F 32.0 °F 81% 30.13 in 7.0 mi WSW 10.4 mph - N/A Rain , Snow Light Rain
4:23 PM 37.4 °F 30.3 °F 33.8 °F 87% 30.13 in 7.0 mi SW 10.4 mph - N/A   Mostly Cloudy
4:58 PM 39.0 °F 34.8 °F 33.4 °F 80% 30.16 in 10.0 mi SSW 5.8 mph - 0.01 in   Mostly Cloudy
5:58 PM 39.4 °F 34.5 °F 33.8 °F 80% 30.18 in 10.0 mi SW 6.9 mph - N/A   Mostly Cloudy
6:58 PM 38.3 °F 33.2 °F 34.0 °F 84% 30.20 in 10.0 mi WSW 6.9 mph - N/A   Overcast
7:58 PM 37.9 °F 33.5 °F 34.7 °F 88% 30.22 in 10.0 mi WSW 5.8 mph - N/A   Overcast
8:58 PM 37.9 °F 34.4 °F 35.1 °F 89% 30.23 in 10.0 mi SW 4.6 mph - N/A   Overcast
9:58 PM 38.5 °F 34.1 °F 30.9 °F 74% 30.25 in 10.0 mi West 5.8 mph - N/A   Overcast
10:58 PM 38.3 °F 33.9 °F 29.7 °F 71% 30.26 in 10.0 mi West 5.8 mph - N/A   Overcast
11:58 PM 37.0 °F 31.6 °F 28.6 °F 71% 30.27 in 10.0 mi West 6.9 mph - N/A   Mostly Cloudy